Location: Moscow
(38.8570°N, 84.2291°W)
Time: 23:39:51
(UTC+00:00)

LilacSat-2 - Visible Passes

Search period start: 13 March 2026 00:00
Search period end: 23 March 2026 00:00
Orbit: 418 x 426 km, 97.5° (Epoch: 13 March)

Date Brightness Start Highest point End Pass type
(mag) Time Alt. Az. Time Alt. Az. Time Alt. Az.
13 Mar ? 00:15:22 10° SE 00:18:10 27° ENE 00:21:01 10° NNE visible
13 Mar ? 01:48:57 10° WSW 01:50:25 12° W 01:51:53 10° WNW visible
14 Mar ? 01:03:36 10° S 01:06:45 51° W 01:09:58 10° NNW visible
15 Mar ? 00:20:25 10° SE 00:23:21 32° ENE 00:26:18 10° N visible
15 Mar ? 01:54:53 10° WSW 01:55:38 11° W 01:56:24 10° W visible
16 Mar ? 01:08:48 10° S 01:11:54 43° W 01:15:02 10° NNW visible
17 Mar ? 00:25:22 10° SE 00:28:23 37° ENE 00:31:26 10° N visible
18 Mar ? 01:13:53 10° SSW 01:16:54 36° W 01:19:57 10° NNW visible
19 Mar ? 00:30:12 10° SSE 00:33:18 43° ENE 00:36:25 10° N visible
20 Mar ? 01:18:50 10° SSW 01:21:46 31° W 01:24:42 10° NNW visible
21 Mar ? 00:34:55 10° SSE 00:38:04 51° ENE 00:41:15 10° N visible
22 Mar ? 01:23:41 10° SSW 01:26:30 27° W 01:29:19 10° NW visible
